GW3729 Weather Reports


time (UTC)temp
C
wind
direction
speed
KPH
gust
KPH
rain 1hr
cm
rain 24hr
cm
rain mn
cm
humidity
%
barometer
mb
20260509185606 21 85 4.8 11.3 0.00 0.00 0.00 51 1009.1
20260509185102 21 63 4.8 14.5 0.00 0.00 0.00 55 1009.0
20260509184600 20 157 4.8 12.9 0.00 0.00 0.00 56 1008.8
20260509184057 20 189 6.4 16.1 0.00 0.00 0.00 54 1009.2
20260509183552 21 114 4.8 16.1 0.00 0.00 0.00 55 1009.1
20260509183048 21 176 3.2 11.3 0.00 0.00 0.00 55 1009.2
20260509182544 21 162 6.4 9.7 0.00 0.00 0.00 57 1009.3
20260509182041 20 195 4.8 16.1 0.00 0.00 0.00 57 1009.4
20260509181540 20 103 3.2 12.9 0.00 0.00 0.00 57 1009.5
20260509181037 20 129 3.2 11.3 0.00 0.00 0.00 59 1009.7
20260509180532 20 170 4.8 11.3 0.00 0.00 0.00 61 1009.4
20260509180030 20 10 8.0 14.5 0.00 0.00 0.00 60 1009.8
20260509175525 19 171 6.4 14.5 0.00 0.00 0.00 61 1009.7
20260509175023 18 173 4.8 4.8 0.00 0.00 0.00 63 1009.9
20260509174519 18 118 3.2 6.4 0.00 0.00 0.00 66 1009.9
20260509174014 18 124 4.8 6.4 0.00 0.00 0.00 62 1010.5
20260509173508 17 41 3.2 8.0 0.00 0.00 0.00 66 1010.5
20260509173005 17 11 3.2 4.8 0.00 0.00 0.00 67 1010.6
20260509172503 17 322 0.0 11.3 0.00 0.00 0.00 67 1010.4
20260509171958 17 312 3.2 4.8 0.00 0.00 0.00 66 1010.8
20260509171454 17 225 3.2 4.8 0.00 0.00 0.00 65 1010.8
20260509170951 17 310 0.0 6.4 0.00 0.00 0.00 67 1011.1
20260509170446 16 47 3.2 6.4 0.00 0.00 0.00 67 1011.1
20260509165942 16 248 1.6 4.8 0.00 0.00 0.00 70 1011.3
20260509165441 16 189 3.2 4.8 0.00 0.00 0.00 70 1011.2
20260509164937 16 328 3.2 8.0 0.00 0.00 0.00 70 1011.0
20260509164433 16 151 3.2 4.8 0.00 0.00 0.00 70 1011.0
20260509163929 16 304 0.0 8.0 0.00 0.00 0.00 71 1011.1
20260509163427 16 19 4.8 6.4 0.00 0.00 0.00 70 1011.0
20260509162926 16 48 3.2 8.0 0.00 0.00 0.00 69 1010.6
20260509162425 16 55 4.8 6.4 0.00 0.00 0.00 68 1010.8
20260509161920 17 293 0.0 4.8 0.00 0.00 0.00 70 1010.6
20260509161417 16 118 3.2 6.4 0.00 0.00 0.00 69 1010.9
20260509160912 16 57 4.8 6.4 0.00 0.00 0.00 70 1010.7
20260509160408 16 322 0.0 8.0 0.00 0.00 0.00 69 1010.9
20260509155904 16 99 3.2 4.8 0.00 0.00 0.00 70 1011.2
20260509155401 16 150 0.0 6.4 0.00 0.00 0.00 68 1011.5
20260509154857 16 186 1.6 6.4 0.00 0.00 0.00 70 1010.9
20260509154354 16 76 3.2 6.4 0.00 0.00 0.00 70 1011.0
20260509153850 16 18 4.8 6.4 0.00 0.00 0.00 70 1011.2
20260509153348 16 108 1.6 8.0 0.00 0.00 0.00 70 1011.2
20260509152844 16 213 0.0 4.8 0.00 0.00 0.00 71 1011.3
20260509152340 16 118 1.6 9.7 0.00 0.00 0.00 69 1011.0
20260509151838 16 58 0.0 8.0 0.00 0.00 0.00 70 1011.1
20260509151334 16 136 3.2 9.7 0.00 0.00 0.00 70 1011.2
20260509150832 16 73 3.2 6.4 0.00 0.00 0.00 69 1010.9
20260509150330 15 83 3.2 11.3 0.00 0.00 0.00 69 1011.0
20260509145827 15 153 1.6 6.4 0.00 0.00 0.00 69 1011.0
20260509145321 15 20 3.2 8.0 0.00 0.00 0.00 68 1011.4
20260509144818 15 4 3.2 6.4 0.00 0.00 0.00 69 1011.2
20260509144315 15 343 0.0 4.8 0.00 0.00 0.00 72 1011.5
20260509143812 15 352 1.6 6.4 0.00 0.00 0.00 70 1011.2
20260509143310 15 327 3.2 3.2 0.00 0.00 0.00 71 1011.4
20260509142806 15 117 0.0 4.8 0.00 0.00 0.00 73 1011.4
20260509142306 14 184 0.0 6.4 0.00 0.00 0.00 73 1011.2
20260509141757 14 98 1.6 6.4 0.00 0.00 0.00 74 1011.4
20260509141255 14 144 0.0 4.8 0.00 0.00 0.00 74 1011.1
20260509140751 14 124 0.0 3.2 0.00 0.00 0.00 75 1011.2
20260509140248 13 319 0.0 6.4 0.00 0.00 0.00 75 1011.0
20260509135746 14 26 1.6 4.8 0.00 0.00 0.00 75 1011.0
20260509135244 13 32 0.0 4.8 0.00 0.00 0.00 76 1010.9
20260509134740 13 122 1.6 4.8 0.00 0.00 0.00 78 1011.1
20260509134238 13 74 0.0 4.8 0.00 0.00 0.00 78 1011.0
20260509133735 13 78 3.2 8.0 0.00 0.00 0.00 77 1011.1
20260509133231 13 103 1.6 4.8 0.00 0.00 0.00 78 1010.7
20260509132730 13 45 3.2 4.8 0.00 0.00 0.00 79 1010.7
20260509132229 12 147 0.0 3.2 0.00 0.00 0.00 79 1010.9
20260509131725 12 5 4.8 6.4 0.00 0.00 0.00 79 1010.7
20260509131221 12 65 0.0 6.4 0.00 0.00 0.00 79 1011.2
20260509130717 12 19 3.2 4.8 0.00 0.00 0.00 80 1011.0
20260509130213 12 61 0.0 6.4 0.00 0.00 0.00 79 1011.2
20260509125710 12 143 1.6 4.8 0.00 0.00 0.00 80 1011.2
20260509125207 12 79 4.8 6.4 0.00 0.00 0.00 80 1011.1
20260509124703 12 356 1.6 4.8 0.00 0.00 0.00 80 1010.9
20260509124200 12 11 0.0 3.2 0.00 0.00 0.00 80 1011.1
20260509123659 12 4 3.2 4.8 0.00 0.00 0.00 81 1011.2
20260509123155 12 65 1.6 3.2 0.00 0.00 0.00 81 1011.1
20260509122650 12 20 1.6 4.8 0.00 0.00 0.00 82 1011.1
20260509122142 12 32 1.6 4.8 0.00 0.00 0.00 81 1011.1
20260509121638 12 94 1.6 4.8 0.00 0.00 0.00 82 1011.1
20260509121137 12 44 0.0 4.8 0.00 0.00 0.00 82 1011.2
20260509120634 12 108 1.6 4.8 0.00 0.00 0.00 81 1011.2
20260509120132 12 43 1.6 4.8 0.00 0.00 0.00 82 1011.1
20260509115629 12 28 1.6 4.8 0.00 0.00 0.00 81 1011.2
20260509115127 12 60 1.6 4.8 0.00 0.00 0.00 81 1011.1
20260509114625 11 288 3.2 6.4 0.00 0.00 0.00 81 1011.1
20260509114124 11 200 3.2 4.8 0.00 0.00 0.00 82 1011.0
20260509113621 11 40 3.2 4.8 0.00 0.00 0.00 82 1010.9
20260509113119 11 106 1.6 4.8 0.00 0.00 0.00 84 1011.1
20260509112615 11 50 0.0 4.8 0.00 0.00 0.00 84 1011.0
20260509112112 11 251 3.2 6.4 0.00 0.00 0.00 84 1010.9
20260509111609 11 327 3.2 6.4 0.00 0.00 0.00 84 1010.8
20260509111106 11 82 0.0 6.4 0.00 0.00 0.00 83 1010.5
20260509110603 11 75 1.6 3.2 0.00 0.00 0.00 83 1010.6
20260509110100 11 79 1.6 3.2 0.00 0.00 0.00 82 1010.7
20260509105558 11 181 0.0 4.8 0.00 0.00 0.00 81 1010.8
20260509105055 11 117 0.0 3.2 0.00 0.00 0.00 80 1010.9
20260509104552 11 99 1.6 3.2 0.00 0.00 0.00 79 1010.8
20260509104049 11 114 1.6 4.8 0.00 0.00 0.00 78 1011.0
20260509103547 11 350 1.6 8.0 0.00 0.00 0.00 78 1010.9
20260509103045 11 323 4.8 9.7 0.00 0.00 0.00 78 1010.7
20260509102542 11 329 0.0 4.8 0.00 0.00 0.00 78 1010.6
20260509102039 11 344 0.0 4.8 0.00 0.00 0.00 77 1010.5
20260509101535 11 7 3.2 4.8 0.00 0.00 0.00 77 1010.7
20260509101032 11 307 0.0 4.8 0.00 0.00 0.00 77 1010.4
20260509100529 11 310 1.6 4.8 0.00 0.00 0.00 77 1010.3
20260509100027 11 295 0.0 4.8 0.00 0.00 0.00 77 1010.1
20260509095523 11 339 3.2 4.8 0.00 0.00 0.00 76 1010.2
20260509095021 11 7 1.6 4.8 0.00 0.00 0.00 75 1010.2
20260509094516 11 354 1.6 4.8 0.00 0.00 0.00 75 1010.3
20260509094014 12 333 0.0 4.8 0.00 0.00 0.00 74 1010.1
20260509093512 12 310 0.0 3.2 0.00 0.00 0.00 73 1010.2
20260509093010 12 295 0.0 3.2 0.00 0.00 0.00 74 1010.2
20260509092507 12 104 0.0 3.2 0.00 0.00 0.00 73 1009.9
20260509092006 12 318 1.6 3.2 0.00 0.00 0.00 71 1010.1
20260509091503 12 284 1.6 3.2 0.00 0.00 0.00 70 1010.0
20260509090959 12 231 0.0 3.2 0.00 0.00 0.00 70 1010.3
20260509090456 12 114 0.0 3.2 0.00 0.00 0.00 70 1010.2
20260509085954 12 50 0.0 3.2 0.00 0.00 0.00 69 1010.3
20260509085451 12 39 1.6 3.2 0.00 0.00 0.00 68 1010.1
20260509084947 13 66 3.2 4.8 0.00 0.00 0.00 66 1010.2
20260509084444 13 14 0.0 3.2 0.00 0.00 0.00 64 1010.5
20260509083941 13 350 0.0 4.8 0.00 0.00 0.00 63 1010.5
20260509083439 13 10 0.0 3.2 0.00 0.00 0.00 62 1009.9
20260509082935 13 159 0.0 3.2 0.00 0.00 0.00 61 1010.3
20260509082432 13 147 0.0 4.8 0.00 0.00 0.00 60 1010.3
20260509081929 13 147 0.0 3.2 0.00 0.00 0.00 59 1010.4
20260509081427 13 0 0.0 4.8 0.00 0.00 0.00 60 1010.5
20260509080924 14 87 1.6 3.2 0.00 0.00 0.00 57 1010.3
20260509080422 14 49 0.0 3.2 0.00 0.00 0.00 56 1010.4
20260509075920 15 107 1.6 4.8 0.00 0.00 0.00 55 1010.0
20260509075416 15 123 1.6 9.7 0.00 0.00 0.00 52 1010.2
20260509074914 15 259 3.2 8.0 0.00 0.00 0.00 52 1010.2
20260509074412 15 255 1.6 6.4 0.00 0.00 0.00 51 1010.5
20260509073908 15 226 6.4 11.3 0.00 0.00 0.00 51 1010.2
20260509073404 15 243 6.4 9.7 0.00 0.00 0.00 52 1010.3
20260509072901 15 271 6.4 14.5 0.00 0.00 0.00 52 1010.3
20260509072357 15 240 4.8 16.1 0.00 0.00 0.00 52 1010.3
20260509071854 15 183 3.2 11.3 0.00 0.00 0.00 54 1010.5
20260509071351 15 243 4.8 14.5 0.00 0.00 0.00 54 1010.3
20260509070848 15 254 8.0 12.9 0.00 0.00 0.00 55 1010.2
20260509070344 14 256 3.2 9.7 0.00 0.00 0.00 56 1010.3
20260509065841 14 199 3.2 12.9 0.00 0.00 0.00 58 1010.3
20260509065337 13 13 1.6 8.0 0.00 0.00 0.00 61 1010.5
20260509064833 12 271 1.6 6.4 0.00 0.00 0.00 63 1010.3
20260509064331 12 63 3.2 4.8 0.00 0.00 0.00 66 1010.5
20260509063829 12 123 1.6 3.2 0.00 0.00 0.00 66 1010.7
20260509063324 12 154 0.0 4.8 0.00 0.00 0.00 66 1010.7
20260509062822 12 85 1.6 3.2 0.00 0.00 0.00 66 1010.3
20260509062319 12 164 0.0 3.2 0.00 0.00 0.00 65 1010.6
20260509061816 12 75 0.0 4.8 0.00 0.00 0.00 65 1010.8
20260509061314 12 221 3.2 4.8 0.00 0.00 0.00 65 1010.8
20260509060810 12 132 0.0 4.8 0.00 0.00 0.00 64 1010.7
20260509060307 12 184 0.0 4.8 0.00 0.00 0.00 64 1010.9
20260509055803 12 221 0.0 4.8 0.00 0.00 0.00 64 1010.9
20260509055258 12 155 0.0 3.2 0.00 0.00 0.00 64 1010.9
20260509054755 13 28 0.0 3.2 0.00 0.00 0.00 64 1010.9
20260509054252 13 72 0.0 3.2 0.00 0.00 0.00 62 1010.9
20260509053751 13 210 0.0 4.8 0.00 0.00 0.00 61 1010.9
20260509053247 13 248 3.2 4.8 0.00 0.00 0.00 62 1011.0
20260509052745 13 297 0.0 6.4 0.00 0.00 0.00 62 1010.9
20260509052243 13 259 0.0 4.8 0.00 0.00 0.00 62 1011.0
20260509051740 13 188 0.0 4.8 0.00 0.00 0.00 63 1010.8
20260509051238 12 286 3.2 6.4 0.00 0.00 0.00 65 1011.1
20260509050729 12 251 0.0 6.4 0.00 0.00 0.00 67 1010.7
20260509050226 11 292 0.0 3.2 0.00 0.00 0.00 69 1010.9
20260509045723 11 140 0.0 3.2 0.00 0.00 0.00 69 1010.8
20260509045220 11 77 0.0 3.2 0.00 0.00 0.00 72 1010.9
20260509044717 11 327 0.0 1.6 0.00 0.00 0.00 72 1011.0
20260509044215 10 251 1.6 4.8 0.00 0.00 0.00 74 1010.7
20260509043711 10 318 0.0 4.8 0.00 0.00 0.00 76 1010.7
20260509043207 10 116 1.6 4.8 0.00 0.00 0.00 76 1010.9
20260509042703 10 146 0.0 4.8 0.00 0.00 0.00 74 1011.1
20260509042159 10 40 1.6 3.2 0.00 0.00 0.00 73 1011.2
20260509041656 10 102 0.0 1.6 0.00 0.00 0.00 73 1011.2
20260509041154 10 116 1.6 3.2 0.00 0.00 0.00 73 1011.2
20260509040652 10 98 0.0 3.2 0.00 0.00 0.00 72 1011.1
20260509040148 10 210 0.0 3.2 0.00 0.00 0.00 72 1011.1
20260509035645 10 159 1.6 3.2 0.00 0.00 0.00 73 1011.6
20260509035142 11 53 0.0 3.2 0.00 0.00 0.00 71 1011.3
20260509034640 10 150 0.0 1.6 0.00 0.00 0.00 70 1011.1
20260509034136 10 304 0.0 1.6 0.00 0.00 0.00 69 1011.2
20260509033634 11 54 0.0 3.2 0.00 0.00 0.00 67 1011.6
20260509033130 11 45 0.0 1.6 0.00 0.00 0.00 66 1011.5
20260509032628 12 349 0.0 3.2 0.00 0.00 0.00 64 1011.2
20260509032124 12 332 0.0 3.2 0.00 0.00 0.00 63 1011.2
20260509031622 12 293 0.0 4.8 0.00 0.00 0.00 64 1011.5
20260509031120 12 35 0.0 3.2 0.00 0.00 0.00 61 1011.2
20260509030618 12 99 3.2 4.8 0.00 0.00 0.00 60 1011.1
20260509030114 12 66 0.0 3.2 0.00 0.00 0.00 61 1011.5
20260509025611 12 33 0.0 3.2 0.00 0.00 0.00 61 1011.4
20260509025106 12 127 0.0 3.2 0.00 0.00 0.00 61 1011.3
20260509024602 12 49 0.0 1.6 0.00 0.00 0.00 61 1011.5
20260509024058 13 331 0.0 3.2 0.00 0.00 0.00 60 1011.6
20260509023556 13 85 0.0 3.2 0.00 0.00 0.00 60 1011.3
20260509023053 13 174 0.0 1.6 0.00 0.00 0.00 60 1011.4
20260509022549 13 47 0.0 3.2 0.00 0.00 0.00 60 1011.5
20260509022047 13 64 0.0 3.2 0.00 0.00 0.00 61 1011.7
20260509021544 13 38 0.0 3.2 0.00 0.00 0.00 61 1011.8
20260509021041 13 9 0.0 3.2 0.00 0.00 0.00 60 1011.8
20260509020539 13 8 0.0 3.2 0.00 0.00 0.00 57 1011.8
20260509020036 13 105 0.0 1.6 0.00 0.00 0.00 57 1011.8
20260509015535 13 75 0.0 3.2 0.00 0.00 0.00 57 1011.5
20260509015032 13 36 0.0 3.2 0.00 0.00 0.00 57 1011.5
20260509014528 13 73 3.2 3.2 0.00 0.00 0.00 57 1011.6
20260509014024 13 6 0.0 3.2 0.00 0.00 0.00 59 1011.5
20260509013522 13 142 0.0 1.6 0.00 0.00 0.00 58 1011.6
20260509013017 13 119 0.0 3.2 0.00 0.00 0.00 56 1011.2
20260509012514 14 109 0.0 3.2 0.00 0.00 0.00 56 1011.5
20260509012011 15 123 0.0 3.2 0.00 0.00 0.00 55 1011.5
20260509011509 14 173 3.2 3.2 0.00 0.00 0.00 56 1011.2
20260509011006 14 141 0.0 1.6 0.00 0.00 0.00 56 1011.3
20260509010504 15 325 0.0 3.2 0.00 0.00 0.00 55 1011.4
20260509010000 15 322 0.0 3.2 0.00 0.00 0.00 54 1011.2
20260509005458 16 16 0.0 3.2 0.00 0.00 0.00 52 1011.3
20260509004957 16 53 0.0 3.2 0.00 0.00 0.00 48 1011.6
20260509004454 16 226 0.0 4.8 0.00 0.00 0.00 49 1011.5
20260509003952 16 37 0.0 3.2 0.00 0.00 0.00 48 1011.3
20260509003450 17 116 1.6 3.2 0.00 0.00 0.00 47 1011.0
20260509002947 17 107 3.2 3.2 0.00 0.00 0.00 47 1011.6
20260509002445 17 152 0.0 3.2 0.00 0.00 0.00 46 1011.4
20260509001942 17 155 1.6 3.2 0.00 0.00 0.00 45 1011.1
20260509001438 17 130 0.0 3.2 0.00 0.00 0.00 45 1011.1
20260509000935 17 189 0.0 1.6 0.00 0.00 0.00 44 1011.1
20260509000433 18 10 0.0 4.8 0.00 0.00 0.00 45 1011.0
20260508235929 18 129 0.0 1.6 0.00 0.00 0.00 43 1010.7
20260508235427 18 133 0.0 1.6 0.00 0.00 0.00 42 1011.1
20260508234923 18 143 1.6 3.2 0.00 0.00 0.00 41 1010.9
20260508234420 18 116 0.0 3.2 0.00 0.00 0.00 40 1010.7
20260508233918 19 110 0.0 3.2 0.00 0.00 0.00 41 1010.8
20260508233417 19 230 0.0 0.0 0.00 0.00 0.00 41 1010.9
20260508232914 19 328 0.0 3.2 0.00 0.00 0.00 39 1010.7
20260508232411 19 334 1.6 4.8 0.00 0.00 0.00 40 1010.8
20260508231908 19 293 0.0 1.6 0.00 0.00 0.00 39 1010.9
20260508231404 19 269 0.0 3.2 0.00 0.00 0.00 38 1010.9
20260508230856 20 246 1.6 3.2 0.00 0.00 0.00 38 1010.8
20260508230352 20 329 0.0 4.8 0.00 0.00 0.00 36 1010.8
20260508225850 21 339 1.6 6.4 0.00 0.00 0.00 36 1010.7
20260508225346 21 315 4.8 8.0 0.00 0.00 0.00 35 1010.7
20260508224844 20 351 3.2 6.4 0.00 0.00 0.00 37 1010.7
20260508224341 20 335 0.0 3.2 0.00 0.00 0.00 39 1010.8
20260508223839 20 330 0.0 4.8 0.00 0.00 0.00 37 1010.8
20260508223336 20 345 3.2 6.4 0.00 0.00 0.00 38 1010.9
20260508222833 20 269 0.0 8.0 0.00 0.00 0.00 38 1011.0
20260508222331 20 14 3.2 12.9 0.00 0.00 0.00 37 1010.9
20260508221827 20 256 0.0 4.8 0.00 0.00 0.00 38 1010.9
20260508221322 20 291 4.8 11.3 0.00 0.00 0.00 37 1010.9
20260508220819 21 35 0.0 9.7 0.00 0.00 0.00 36 1010.8
20260508220316 21 256 3.2 9.7 0.00 0.00 0.00 33 1010.5
20260508215813 21 302 6.4 9.7 0.00 0.00 0.00 35 1010.7
20260508215309 21 346 4.8 6.4 0.00 0.00 0.00 35 1010.9
20260508214806 20 250 8.0 16.1 0.00 0.00 0.00 36 1010.8
20260508214303 21 252 3.2 9.7 0.00 0.00 0.00 35 1011.1
20260508213759 20 294 1.6 4.8 0.00 0.00 0.00 39 1010.9
20260508213256 20 351 3.2 11.3 0.00 0.00 0.00 36 1011.0
20260508212753 20 315 3.2 11.3 0.00 0.00 0.00 35 1010.9
20260508212249 20 325 1.6 8.0 0.00 0.00 0.00 37 1011.0
20260508211745 20 265 1.6 8.0 0.00 0.00 0.00 36 1011.2
20260508211241 20 251 6.4 9.7 0.00 0.00 0.00 37 1011.0
20260508210739 20 327 4.8 14.5 0.00 0.00 0.00 36 1011.0
20260508210235 20 354 9.7 12.9 0.00 0.00 0.00 35 1011.2
20260508205726 20 241 0.0 9.7 0.00 0.00 0.00 35 1010.9
20260508205223 21 303 6.4 11.3 0.00 0.00 0.00 32 1011.0
20260508204719 21 328 6.4 11.3 0.00 0.00 0.00 35 1011.2
20260508204216 20 222 4.8 14.5 0.00 0.00 0.00 34 1011.3
20260508203712 20 231 4.8 16.1 0.00 0.00 0.00 34 1011.4
20260508203208 20 289 12.9 19.3 0.00 0.00 0.00 33 1011.2
20260508202704 20 262 6.4 20.9 0.00 0.00 0.00 33 1011.3
20260508202201 20 296 6.4 17.7 0.00 0.00 0.00 33 1011.2
20260508201658 20 227 22.5 25.7 0.00 0.00 0.00 32 1011.5
20260508201155 20 322 8.0 14.5 0.00 0.00 0.00 33 1011.1
20260508200652 20 265 8.0 17.7 0.00 0.00 0.00 34 1011.6
20260508200148 20 275 3.2 16.1 0.00 0.00 0.00 33 1011.2
20260508195645 20 266 9.7 16.1 0.00 0.00 0.00 32 1011.4
20260508195141 20 258 17.7 25.7 0.00 0.00 0.00 32 1011.3
20260508194637 20 266 9.7 16.1 0.00 0.00 0.00 33 1011.3
20260508194134 21 240 14.5 24.1 0.00 0.00 0.00 31 1011.3
20260508193631 21 318 6.4 19.3 0.00 0.00 0.00 34 1011.4
20260508193128 21 235 16.1 24.1 0.00 0.00 0.00 31 1011.6
20260508192625 21 188 8.0 17.7 0.00 0.00 0.00 33 1011.7
20260508192122 21 241 14.5 22.5 0.00 0.00 0.00 30 1011.4
20260508191618 21 247 8.0 14.5 0.00 0.00 0.00 34 1011.8
20260508191115 21 333 4.8 24.1 0.00 0.00 0.00 32 1011.7
20260508190613 21 245 8.0 27.4 0.00 0.00 0.00 32 1012.0
20260508190109 20 243 14.5 17.7 0.00 0.00 0.00 32 1011.9